Regional Weather Roundup
Issued by NWS Sioux Falls, SD

Home | Current Version | Previous Version | Graphics & Text | Print | Product List | Glossary On
Versions: 1 2 3 4 5 6 7 8 9 10 11 12 13 14 15 16 17 18 19 20 21 22 23 24 25 26 27 28 29 30 31 32 33 34 35 36 37 38 39 40 41 42 43 44 45 46 47 48 49 50
000
ASUS43 KFSD 280502
RWRFSD

WEATHER ROUNDUP FOR SE SOUTH DAKOTA/SW MINNESOTA/NW IOWA
NATIONAL WEATHER SERVICE SIOUX FALLS SD
1100 PM CST THU NOV 27 2014

NOTE: "FAIR" INDICATES FEW OR NO CLOUDS BELOW 12,000 FEET WITH NO
SIGNIFICANT WEATHER AND OR OBSTRUCTIONS TO VISIBILITY.


SDZ038>040-050-052>070-280600-
SOUTHEAST SOUTH DAKOTA

CITY           SKY/WX    TMP DP  RH WIND       PRES   REMARKS
CHAMBERLAIN    PTCLDY    28  19  70 SE6       29.87F WCI  21
HURON          MOCLDY    18  12  77 S14       29.95F WCI   4
MADISON        CLOUDY    14  10  85 S20G28    29.98F WCI  -3
MITCHELL       CLOUDY    22  15  75 SE16      29.98F WCI   8
SIOUX FALLS    CLOUDY    17  10  74 SE9       30.06F WCI   6
WINNER         FAIR      39  24  55 SW13      29.85S
YANKTON        CLOUDY    23  12  63 SE18      30.03F WCI   9
$$

MNZ071-072-080-081-089-090-097-098-280600-
SOUTHWEST MINNESOTA

CITY           SKY/WX    TMP DP  RH WIND       PRES   REMARKS
FAIRMONT       CLOUDY     9   0  66 S15       30.19F WCI  -8
JACKSON        CLOUDY    10   1  67 SE13      30.14F WCI  -5
LUVERNE        MOCLDY    16  10  79 SE14G20   30.07F WCI   1
MARSHALL       CLOUDY    10   1  67 SE14      30.10F WCI  -5
MONTEVIDEO     FLURRIES   7   1  78 S17       30.15F WCI -12
PIPESTONE      CLOUDY    12   9  85 S15G22    30.02F WCI  -4
REDWOOD FALLS  CLOUDY     5   0  79 SE15      30.17F WCI -13
TRACY          CLOUDY    11   4  73 S17       30.09F WCI  -6
WINDOM         CLOUDY     9   1  72 SE13G20   30.12F WCI  -7
WORTHINGTON    CLOUDY    10   3  72 S15       30.09F WCI  -6
$$

IAZ001>003-012>014-020>022-031-032-NEZ013-014-SDZ071-280600-
NORTHWEST IOWA

CITY           SKY/WX    TMP DP  RH WIND       PRES   REMARKS
DENISON        CLOUDY    19  14  79 SE14G21   30.14F WCI   6
ESTHERVILLE    CLOUDY     8   1  73 S17       30.17F WCI -10
SIOUX CITY     CLOUDY    21  13  71 SE12      30.12F WCI   9
SPENCER        FAIR      12   3  67 SE17      30.14F WCI  -5
$$

ABBREVIATIONS USED IN REMARKS
   TC - TEMPERATURE IN CELSIUS
  WCI - WIND CHILL INDEX
   HX - HEAT INDEX
  VSB - VISIBILITY



USA.gov is the U.S. government's official web portal to all federal, state and local government web resources and services.